Weather History for Jonesville, VA

Change the Weather History Date:

Monday, April 1, 2013

  Actual Average (KLOZ) Record (KLOZ)
Temperature  
Mean Temperature 46 °F 52 °F  
Max Temperature 57 °F 64 °F 86 °F (1974)
Min Temperature 35 °F 40 °F 22 °F (1994)
Degree Days  
Heating Degree Days 19 13  
Month to date heating degree days 13  
Since 1 July heating degree days 3838  
Cooling Degree Days 0 0  
Month to date cooling degree days 0  
Year to date cooling degree days 3  
Moisture  
Dew Point 37 °F    
Average Humidity 75    
Maximum Humidity 100    
Minimum Humidity 38    
Precipitation  
Precipitation 0.00 in 0.13 in 2.43 in (1979)
Month to date precipitation 0.13  
Year to date precipitation 11.43  
Sea Level Pressure  
Sea Level Pressure 29.99 in    
Wind  
Wind Speed 3 mph (WNW)    
Max Wind Speed 17 mph    
Max Gust Speed 24 mph    
Visibility 6 miles    
Events Fog , Rain    
T = Trace of Precipitation, MM = Missing Value Source: NWS Daily Summary

Daily Weather History Graph

Daily Weather History Graph

Search for Another Location

Airport:

Trip Planner

Search our weather history database for the weather conditions in past years. The results will help you decide how hot, cold, wet, or windy it might be!

Date:

Astronomy

Apr. 01, 2013 Rise Set
Actual Time 7:18 AM EDT 7:55 PM EDT
Civil Twilight 6:52 AM EDT 8:21 PM EDT
Nautical Twilight 6:21 AM EDT 8:52 PM EDT
Astronomical Twilight 5:50 AM EDT 9:23 PM EDT
Moon 12:55 AM EDT (4/1) 11:10 AM EDT (4/1)
Length of Visible Light 13h 28m
Length of Day
12h 36m
Waning Gibbous, 67% of the Moon is Illuminated
Apr 1
Waning Gibbous
Apr 3
Last Quarter
Apr 10
New
Apr 18
First Quarter
Apr 25
Full

Hourly Weather History & Observations

Time (EDT) Temp. Windchill Dew Point Humidity Pressure Visibility Wind Dir Wind Speed Gust Speed Precip Events Conditions
12:15 AM 44.6 °F - 44.6 °F 100% 29.92 in 7.0 mi Calm Calm - N/A   Mostly Cloudy
12:55 AM 41.0 °F - 41.0 °F 100% 29.93 in 0.8 mi Calm Calm - N/A   Mist
1:15 AM 41.0 °F - 41.0 °F 100% 29.93 in 1.5 mi Calm Calm - N/A   Scattered Clouds
1:35 AM 39.2 °F - 39.2 °F 100% 29.93 in 3.0 mi Calm Calm - N/A   Clear
1:55 AM 39.2 °F - 39.2 °F 100% 29.92 in 3.0 mi Calm Calm - N/A   Clear
2:15 AM 39.2 °F - 39.2 °F 100% 29.93 in 2.0 mi Calm Calm - N/A   Mist
2:35 AM 37.4 °F - 37.4 °F 100% 29.93 in 1.0 mi Calm Calm - N/A   Mist
2:55 AM 37.4 °F - 37.4 °F 100% 29.93 in 0.8 mi Calm Calm - N/A   Mist
3:15 AM 37.4 °F - 37.4 °F 100% 29.92 in 0.2 mi Calm Calm - N/A Fog Fog
3:35 AM 35.6 °F - 35.6 °F 100% 29.92 in 0.2 mi Calm Calm - N/A Fog Fog
3:55 AM 37.4 °F - 37.4 °F 100% 29.92 in 0.2 mi Calm Calm - N/A Fog Fog
4:15 AM 37.4 °F - 37.4 °F 100% 29.92 in 0.2 mi Calm Calm - N/A Fog Fog
4:35 AM 35.6 °F - 35.6 °F 100% 29.92 in 0.2 mi Calm Calm - N/A Fog Fog
5:15 AM 37.4 °F - 37.4 °F 100% 29.93 in 0.2 mi Calm Calm - N/A Fog Fog
5:35 AM 37.4 °F - 37.4 °F 100% 29.93 in 0.2 mi Calm Calm - N/A Fog Fog
6:15 AM 37.4 °F - 37.4 °F 100% 29.94 in 0.2 mi Calm Calm - N/A Fog Fog
6:35 AM 37.4 °F - 37.4 °F 100% 29.94 in 0.2 mi Calm Calm - N/A Fog Fog
6:55 AM 37.4 °F - 37.4 °F 100% 29.94 in 0.2 mi Calm Calm - N/A Fog Fog
7:15 AM 39.2 °F - 39.2 °F 100% 29.95 in 0.2 mi Calm Calm - N/A Fog Fog
7:35 AM 39.2 °F - 39.2 °F 100% 29.96 in 0.2 mi Calm Calm - N/A Fog Fog
7:55 AM 39.2 °F - 39.2 °F 100% 29.97 in 0.2 mi Calm Calm - N/A Fog Fog
8:15 AM 39.2 °F - 39.2 °F 100% 29.98 in 0.2 mi Calm Calm - N/A Fog Fog
8:35 AM 39.2 °F - 39.2 °F 100% 29.98 in 0.2 mi Calm Calm - N/A Fog Fog
8:55 AM 39.2 °F - 39.2 °F 100% 29.99 in 0.2 mi Calm Calm - N/A Fog Fog
9:15 AM 39.2 °F - 39.2 °F 100% 29.99 in 0.2 mi Calm Calm - N/A Fog Fog
9:35 AM 41.0 °F - 41.0 °F 100% 30.00 in 0.2 mi Calm Calm - N/A Fog Fog
9:55 AM 41.0 °F - 41.0 °F 100% 30.00 in 0.8 mi Calm Calm - N/A   Overcast
10:15 AM 42.8 °F - 42.8 °F 100% 30.00 in 1.8 mi Calm Calm - N/A   Overcast
10:35 AM 44.6 °F - 44.6 °F 100% 30.00 in 10.0 mi Calm Calm - N/A   Overcast
11:15 AM 48.2 °F - 48.2 °F 100% 30.01 in 10.0 mi West 10.4 mph - N/A   Overcast
11:35 AM 48.2 °F - 48.2 °F 100% 30.02 in 10.0 mi West 9.2 mph - N/A Rain Light Rain
11:55 AM 48.2 °F - 48.2 °F 100% 30.02 in 10.0 mi West 6.9 mph - N/A   Overcast
12:15 PM 50.0 °F - 46.4 °F 87% 30.02 in 10.0 mi West 10.4 mph - N/A   Overcast
12:35 PM 51.8 °F - 44.6 °F 76% 30.02 in 10.0 mi West 11.5 mph - N/A   Mostly Cloudy
12:55 PM 51.8 °F - 44.6 °F 76% 30.03 in 10.0 mi West 9.2 mph - N/A   Mostly Cloudy
1:15 PM 51.8 °F - 41.0 °F 67% 30.02 in 10.0 mi WSW 10.4 mph - N/A   Overcast
1:35 PM 53.6 °F - 41.0 °F 62% 30.02 in 10.0 mi WSW 8.1 mph - N/A   Overcast
2:15 PM 55.4 °F - 39.2 °F 54% 30.01 in 10.0 mi West 9.2 mph - N/A   Partly Cloudy
2:35 PM 57.2 °F - 39.2 °F 51% 30.00 in 10.0 mi West 12.7 mph 19.6 mph N/A   Mostly Cloudy
2:55 PM 57.2 °F - 37.4 °F 48% 30.00 in 10.0 mi West 15.0 mph 21.9 mph N/A   Scattered Clouds
3:15 PM 57.2 °F - 37.4 °F 48% 29.99 in 10.0 mi West 16.1 mph 21.9 mph N/A   Partly Cloudy
3:35 PM 57.2 °F - 37.4 °F 48% 29.99 in 10.0 mi WSW 13.8 mph - N/A   Scattered Clouds
3:55 PM 57.2 °F - 35.6 °F 44% 29.99 in 10.0 mi WSW 17.3 mph - N/A   Mostly Cloudy
4:15 PM 57.2 °F - 33.8 °F 41% 29.99 in 10.0 mi WSW 10.4 mph 21.9 mph N/A   Mostly Cloudy
4:35 PM 57.2 °F - 33.8 °F 41% 29.98 in 10.0 mi WSW 17.3 mph - N/A   Scattered Clouds
4:55 PM 57.2 °F - 33.8 °F 41% 29.98 in 10.0 mi West 16.1 mph 20.7 mph N/A   Scattered Clouds
5:15 PM 57.2 °F - 33.8 °F 41% 29.98 in 10.0 mi West 11.5 mph 18.4 mph N/A   Scattered Clouds
5:35 PM 55.4 °F - 32.0 °F 41% 29.98 in 10.0 mi WNW 11.5 mph 17.3 mph N/A   Scattered Clouds
5:55 PM 57.2 °F - 32.0 °F 38% 29.98 in 10.0 mi NW 9.2 mph - N/A   Scattered Clouds
6:15 PM 55.4 °F - 32.0 °F 41% 29.99 in 10.0 mi West 10.4 mph 19.6 mph N/A   Mostly Cloudy
6:35 PM 55.4 °F - 32.0 °F 41% 29.99 in 10.0 mi WNW 12.7 mph 21.9 mph N/A   Mostly Cloudy
7:15 PM 53.6 °F - 30.2 °F 41% 30.00 in 10.0 mi WNW 13.8 mph 21.9 mph N/A   Scattered Clouds
7:35 PM 53.6 °F - 28.4 °F 38% 30.01 in 10.0 mi WNW 12.7 mph 24.2 mph N/A   Partly Cloudy
7:55 PM 51.8 °F - 30.2 °F 44% 30.01 in 10.0 mi West 9.2 mph - N/A   Partly Cloudy
8:15 PM 51.8 °F - 28.4 °F 41% 30.02 in 10.0 mi WNW 11.5 mph 20.7 mph N/A   Mostly Cloudy
8:35 PM 50.0 °F - 30.2 °F 47% 30.02 in 10.0 mi West 9.2 mph - N/A   Mostly Cloudy
8:55 PM 50.0 °F - 32.0 °F 50% 30.03 in 10.0 mi WNW 5.8 mph - N/A   Mostly Cloudy
9:15 PM 48.2 °F - 32.0 °F 54% 30.03 in 10.0 mi NNW 8.1 mph - N/A   Mostly Cloudy
9:35 PM 48.2 °F - 30.2 °F 50% 30.05 in 10.0 mi NNW 6.9 mph 19.6 mph N/A   Scattered Clouds
9:55 PM 46.4 °F 42.4 °F 32.0 °F 57% 30.06 in 10.0 mi NNW 8.1 mph - N/A   Partly Cloudy
10:15 PM 46.4 °F 42.9 °F 32.0 °F 57% 30.07 in 10.0 mi NNW 6.9 mph - N/A   Clear
10:35 PM 46.4 °F 43.5 °F 32.0 °F 57% 30.08 in 10.0 mi NNW 5.8 mph - N/A   Scattered Clouds
10:55 PM 44.6 °F 41.4 °F 32.0 °F 61% 30.08 in 10.0 mi NNW 5.8 mph - N/A   Scattered Clouds
11:15 PM 44.6 °F 41.4 °F 32.0 °F 61% 30.09 in 10.0 mi NNW 5.8 mph - N/A   Mostly Cloudy
11:35 PM 42.8 °F 39.3 °F 32.0 °F 66% 30.10 in 10.0 mi NNW 5.8 mph - N/A   Mostly Cloudy
11:55 PM 41.0 °F - 28.4 °F 61% 30.10 in 10.0 mi Calm Calm - N/A   Mostly Cloudy